{"data":{"norad_id":57613,"epoch":"2026-05-25T00:37:14.730816Z","epoch_age_seconds":75810,"freshness":"FRESH","line1":"1 57613U 23119M   26145.02586494  .00001038  00000+0  47266-4 0  9994","line2":"2 57613  43.0034  10.2435 0001775 266.9880  93.0768 15.27575091154760","mean_motion":15.27575091,"eccentricity":0.0001775,"inclination_deg":43.0034,"raan_deg":10.2435,"arg_perigee_deg":266.988,"mean_anomaly_deg":93.0768,"bstar":4.7266e-5,"rev_number":15476,"period_min":94.26705164833,"perigee_km":481.84593224984,"apogee_km":484.2816585322,"semimajor_km":6861.200795391,"source":"CELESTRAK","updated_at":"2026-05-25T13:38:18.357986Z"}}